User: anonymous   Login
Location: Unspecified
(0.0000°N, 0.0000°E)
Time: 02:55:21
(UTC+00:00)
Language:

Vela 4A - Orbit

View from above orbital plane
View from above orbital plane
View from above satellite
View from above satellite

Ground track
Ground track

The orbit data is extracted from the following two-line orbital elements,

1 02765U 67040A   15183.96111210 -.00000546  00000-0  00000+0 0  9991
2 02765 005.2725 345.6850 4599043 198.4734 000.0347 00.21480044 37809
Epoch (UTC): 02 July 2015 23:04:00
Eccentricity: 0.4599043
inclination: 5.2725°
perigee height: 57230 km
apogee height: 165557 km
right ascension of ascending node: 345.6850°
argument of perigee: 198.4734°
revolutions per day: 0.21480044
mean anomaly at epoch: 0.0347°
orbit number at epoch: 3780

The dashed part of the orbit path shows where the satellite is in the earth's shadow,  

DLR